Location: Fountain Hills
(33.6120°N, 111.7170°W)
Time: 00:25:35
(UTC-07:00)

Daily predictions for brighter satellites

Satellite Brightness Start Highest point End
(mag) Time Altitude Azimuth Time Altitude Azimuth Time Altitude Azimuth
Cosmos 2227 Rocket 4.4 00:35:17 10° NNE 00:38:39 19° NE 00:38:39 19° NE
Cosmos 1943 Rocket 4.3 00:44:41 20° NW 00:44:41 20° NW 00:47:36 10° N
Cosmos 2297 Rocket 4.3 00:55:56 10° NNE 00:59:47 20° NE 00:59:47 20° NE
ATLAS 3B CENTAUR R/B 4.1 01:04:39 71° S 01:05:06 71° S 01:33:33 10° E
ATLAS 2AS CENTAUR R/B 4.1 01:04:41 10° NW 01:09:11 33° WNW 01:09:11 33° WNW
ATLAS CENTAUR R/B 3.8 01:39:24 26° NNE 01:39:24 26° NNE 01:41:33 10° NNE
SeaSat 1 4.1 01:51:34 30° N 01:51:34 30° N 01:54:16 10° NNW
Cosmos 1697 Rocket 3.6 02:03:35 45° NE 02:03:35 45° NE 02:07:31 10° NNE
Resurs 1-4 Rocket 4.3 02:01:42 10° NE 02:04:56 16° E 02:05:02 16° E
Cosmos 2034 Rocket 4.3 02:10:03 63° NNE 02:10:03 63° NNE 02:15:14 10° N
Cosmos 1980 Rocket 3.1 02:13:01 42° ENE 02:13:01 42° ENE 02:17:17 10° NNE
Cosmos 2227 Rocket 3.8 02:18:07 10° NNW 02:20:24 24° NW 02:20:24 24° NW
Cosmos 2322 Rocket 3.9 02:25:36 23° ESE 02:25:58 23° E 02:30:15 10° NE
Meteor 2-12 Rocket 4.5 02:30:01 73° NE 02:30:01 73° NE 02:35:37 10° N
NPP 4.3 02:27:01 10° N 02:31:02 48° NNW 02:31:02 48° NNW
SL-16 R/B 3.8 02:30:27 19° ESE 02:34:14 36° ENE 02:39:46 10° N
Cosmos 841 Rocket 4.1 02:36:12 53° N 02:36:12 53° N 02:40:14 10° NNE
NOSS 3-4 (A) 3.7 02:28:30 10° NNW 02:35:39 89° NE 02:36:54 65° SSE
NOSS 3-4 (C) 3.7 02:28:35 10° NNW 02:35:45 89° ENE 02:37:09 63° SSE
Cosmos 1763 Rocket 4.2 02:39:26 46° NNW 02:39:26 46° NNW 02:43:16 10° N
Cosmos 2297 Rocket 3.6 02:38:52 10° NNW 02:41:32 27° NW 02:41:32 27° NW
Geosat 4.3 02:42:22 10° NNE 02:46:35 61° N 02:46:35 61° N
Cosmos 1634 Rocket 4.2 02:51:12 54° SE 02:52:23 64° E 02:58:36 10° NNE
DELTA 2 R/B (1) 4.0 02:53:35 52° ESE 02:53:35 52° ESE 02:58:12 10° ENE
ERS-2 4.3 02:49:35 10° N 02:51:11 24° N 02:51:11 24° N
Cosmos 540 Rocket 3.7 02:56:28 60° ESE 02:56:28 60° ESE 03:01:33 10° NNE
SL-16 R/B 2.9 03:00:26 41° SE 03:01:27 46° ESE 03:06:50 10° NE
Aureole 1 Rocket 4.4 03:01:56 44° SSE 03:03:33 56° E 03:10:45 10° NNE
Cosmos 2360 4.0 03:05:36 78° W 03:05:48 79° WNW 03:11:33 10° NNE
Cosmos 1092 Rocket 3.9 03:01:57 10° N 03:08:17 87° W 03:09:46 56° S
Cosmos-2242 3.5 03:10:11 54° N 03:10:11 54° N 03:13:33 10° N
Cosmos 1743 Rocket 4.3 03:05:20 10° N 03:09:33 48° E 03:10:09 44° ESE
ARIANE 5 R/B 2.4 03:04:36 10° N 03:09:47 82° WNW 03:09:53 81° W
Cosmos 1544 4.2 03:12:37 42° NE 03:12:37 42° NE 03:15:25 10° NNE
ATLAS CENTAUR R/B 4.3 03:15:52 10° NW 03:16:25 10° NW 03:16:56 10° NW
CZ-2D R/B 2.1 03:11:11 10° NNE 03:16:39 85° ESE 03:17:32 64° S
OAO 1 4.4 03:18:51 71° S 03:18:51 71° S 03:24:12 10° ESE
Cosmos 332 Rocket 3.6 03:22:19 77° W 03:22:26 78° WNW 03:27:17 10° NNE
SL-24 R/B 4.3 03:25:41 63° W 03:25:41 63° W 03:29:53 10° NNW
UNKNOWN OBJECT B 2.8 03:25:06 10° NNE 03:28:43 74° NE 03:28:43 74° NE
SME Rocket 4.1 03:27:55 45° SSW 03:29:45 66° W 03:38:02 10° NNW
UNK 3.6 03:31:12 66° SSW 03:31:45 76° WSW 03:36:26 10° NNW
Okean O Rocket 2.7 03:28:15 10° NNE 03:32:26 41° E 03:34:22 26° SSE
Cosmos 1805 4.3 03:34:14 34° NW 03:34:14 34° NW 03:36:58 10° N
EO 1 Del DPAF 3.1 03:35:16 89° W 03:35:16 89° W 03:39:10 10° NNW
Cosmos 2227 4.1 03:34:08 10° NNW 03:39:52 71° WSW 03:43:40 22° S
Cosmos 1538 Rocket 4.2 03:38:12 35° S 03:40:22 67° ESE 03:45:40 10° NNE
Cosmos 371 Rocket 3.2 03:39:38 57° SW 03:40:34 77° WNW 03:45:24 10° NNE
Cosmos 1461 2.7 03:36:41 10° NNW 03:40:45 82° ENE 03:42:58 25° SSE
In-Cosmos 22 4.1 03:36:09 10° NNW 03:41:18 56° W 03:42:23 47° SW
Cosmos 2279 Rocket 3.9 03:39:40 32° S 03:42:47 85° W 03:49:04 10° N
IRS-1D 4.0 03:39:30 10° N 03:44:05 39° WNW 03:44:41 37° W
CZ-2D R/B 3.5 03:39:48 10° NNE 03:44:13 89° ESE 03:45:27 48° S
Resurs 1-4 Rocket 2.4 03:39:56 10° N 03:44:58 49° WNW 03:46:06 41° WSW
CZ-4B R/B 4.0 03:47:03 10° NNE 03:50:34 36° E 03:52:41 19° SSE
Cosmos 1953 4.0 03:52:39 21° WNW 03:52:39 21° WNW 03:55:07 10° NNW
Milstar 3 Cent rocket 2.5 03:50:49 39° SW 03:52:17 49° S 03:59:44 10° ESE
Cosmos 1842 Rocket 3.8 03:52:27 47° WSW 03:53:10 52° W 03:57:33 10° N
Cosmos 1674 2.5 03:51:07 10° N 03:54:53 87° E 03:56:18 36° S
Cosmos 1980 Rocket 3.7 03:54:48 18° WNW 03:56:06 20° WNW 04:00:10 10° NNW
Cosmos 2360 Rocket 2.9 03:52:19 18° S 03:56:19 51° ESE 04:01:46 10° NNE
MTI 3.7 03:58:01 66° WSW 03:58:02 66° W 04:01:19 10° NNW
Cosmos 372 Rocket 3.8 03:57:04 10° NNW 04:02:08 67° WSW 04:07:10 10° S
SWAS 4.4 04:01:40 41° SW 04:03:03 69° WNW 04:07:21 10° NNE
Cosmos 2151 3.1 04:04:49 10° N 04:09:08 76° E 04:13:24 10° S
Cosmos 2322 Rocket 2.8 04:07:26 28° WSW 04:09:41 39° WNW 04:14:56 10° N
Delta 128 4.0 04:10:42 32° SW 04:12:03 41° S 04:16:24 10° ESE
CZ-4B DEB 4.2 04:10:37 10° NNE 04:16:11 88° ESE 04:21:15 12° SSW
SL-16 R/B 3.3 04:15:33 23° SW 04:17:48 29° W 04:23:05 10° NW
Cosmos 967 Rocket 4.4 04:13:01 10° NNW 04:19:23 83° WSW 04:25:38 10° SSE
GPS 2-04 Rocket1 2.9 04:18:53 27° W 04:20:44 47° SSW 04:24:27 10° SE
Okean-O 3.5 04:19:07 10° NNE 04:23:26 48° E 04:27:41 10° S
Meteor 2-1 Rocket 4.3 04:19:32 10° S 04:25:11 81° E 04:30:46 10° N
Meteor 2-20 4.4 04:23:14 10° N 04:29:18 72° W 04:35:22 10° S
Cosmos 1470 4.3 04:32:14 18° W 04:33:12 20° WNW 04:36:10 10° NNW
Cosmos 1666 Rocket 4.4 04:29:01 10° N 04:33:18 52° E 04:37:30 10° SSE
Cosmos 2219 Rocket 4.4 04:31:28 10° SSE 04:35:45 23° E 04:40:03 10° NE
MINOTAUR R/B 4.5 04:36:29 16° SSW 04:38:48 85° WNW 04:41:54 10° NNE
DELTA 2 R/B (1) 4.1 04:34:21 13° W 04:39:15 56° NNW 04:44:45 10° ENE
SL-14 R/B 3.3 04:35:25 10° N 04:39:18 79° E 04:43:09 10° S
RESURS DK-1 3.6 04:36:13 10° NW 04:39:21 21° WSW 04:41:20 15° SW
Cosmos 304 Rocket 3.8 04:36:17 12° SSW 04:40:41 70° WNW 04:45:30 10° NNE
MOZ.5/SAFIR/RUBIN 5/SL-8 4.1 04:38:29 10° S 04:42:58 44° W 04:47:26 10° NNW
Cosmos 2112 Rocket 4.2 04:38:08 10° S 04:43:17 74° ESE 04:48:31 10° NNE
Cosmos 2058 2.9 04:39:09 10° NNW 04:43:21 67° W 04:47:29 10° S
SL-16 R/B 3.7 04:42:19 13° W 04:45:44 21° WNW 04:50:00 10° N
Feng Yun 1-1 Rocket 4.3 04:41:10 10° NNE 04:46:44 79° ESE 04:52:09 10° S
Cosmos 2221 3.2 04:44:41 13° SW 04:48:05 36° W 04:52:04 10° NNW
ADEOS II 2.3 04:43:28 10° NNE 04:48:44 75° ESE 04:53:58 10° S
Hubble Space Telescope 2.7 04:48:50 10° SSW 04:51:46 19° SSE 04:54:41 10° ESE
CZ-2D R/B 4.2 04:55:01 10° NW 04:55:53 10° WNW 04:56:46 10° WNW
Cosmos 2263 Rocket 2.2 04:50:50 10° NNW 04:56:18 60° WSW 05:01:45 10° S
Cosmos 2084 3.5 04:54:57 10° NNW 04:59:07 84° ENE 05:03:32 10° SSE
COSMOS 2428 2.8 04:53:38 10° SSW 04:59:17 84° ESE 05:04:58 10° NNE
Cosmos 1633 Rocket 3.0 04:58:23 10° N 05:02:48 83° W 05:07:12 10° S
GEOS 3 Rocket 4.2 04:59:20 10° S 05:04:01 33° WSW 05:08:40 10° NW
Cosmos 2228 Rocket 3.1 05:00:22 10° SSW 05:04:48 71° W 05:09:20 10° N
Cosmos 1626 3.8 05:01:27 10° N 05:04:58 38° E 05:08:28 10° SSE
Cosmos 1908 4.4 05:02:06 10° SSE 05:05:50 47° E 05:09:37 10° NNE
Cosmos 2322 4.4 05:02:05 10° SW 05:07:22 38° WNW 05:12:42 10° N
Cosmos 2333 4.4 05:02:14 10° SSW 05:07:50 79° ESE 05:13:32 10° NNE
Cosmos 1680 Rocket 3.8 05:03:21 10° SSW 05:08:24 52° WNW 05:13:30 10° N
Okean O Rocket 3.5 05:05:57 10° NNW 05:08:26 15° WNW 05:10:54 10° WSW
CZ-4B R/B 4.3 05:05:13 10° NNW 05:09:40 26° WNW 05:14:03 10° WSW
Meteor 1-31 Rocket 3.0 05:06:12 10° NNE 05:10:05 75° E 05:13:55 10° S
Lacrosse 5 rocket 3.5 05:07:08 10° NNW 05:10:20 28° NE 05:13:36 10° ESE
CZ-3 R/B 2.9 04:44:49 10° WSW 05:11:21 66° S 05:17:26 10° E
Delta 2 Rocket 3.1 05:07:52 10° WSW 05:11:27 88° N 05:15:28 10° ENE
